STARLINK-1222, 45228

Orbit data source: Space-Track

STARLINK-1222, 45228 is a payload satellite owned by SpaceX/Seattle (US) in LEO that was launched on Mon, 17 Feb 2020 UTC via an FALCON 9 launch vehicle from the Air Force Eastern Test Range (AFETR). Payload-class satellites include a variety of spacecraft equipped with specific instruments for various scientific and technological missions. These include communications satellites like Starlink; space stations such as the ISS; scientific satellites like the Hubble; Earth observation satellites from companies like Planet Labs, Umbra, and HawkEye 360; GPS; miniature CubeSats for education and research; and military/defense satellites.

Loading next visibility...
Identifier
45228, 2020-012BC
Orbit
LEO
Country
Flag of USUS
Related business
Manufacturer
SpaceX/Seattle
Mission
Partially operational Commercial Communications
Bus & Motor
STARLINK, Unknown motor
Mass
260 kg wet, ~248 kg dry
Launch date (UTC)
2020-02-17 (6 years ago)
Launch vehicle
FALCON 9
Launch site
Air Force Eastern Test Range (AFETR)
Object type
Payload
Rocket body
Debris
Shape & HBR
Box + 1 Pan, 10.1 m
Radar Cross Section
13.562 m², Large (>1 m²)

Expand to show TLE details & history
Last TLE update: 2 days ago

TLE from 2 days ago
0 STARLINK-1222
1 45228U 20012BC  26171.35108031  .00024307  00000-0  34696-3 0  9991
2 45228  53.0508 208.2383 0003089  41.8795 318.2451 15.56161408351576
Epoch: 2026-06-20T08:25Z
TLE epoch observation values (Epoch: 2026-06-20T08:25:33.338Z)
Latitude
-0.00008°
Longitude
173.28238°
Altitude
398.115 km
Speed
7.674 km/s
True Right ascension
13h 52m 57s
True Declination
0° 00' 00"
Sunlit
Object was in full shadow at epoch
Visualization orbit readout
Latitude
Unknown
Longitude
Unknown
Altitude
Unknown
Speed
Unknown
Apparent Right ascension
Unknown
Apparent Declination
Unknown
Sunlit
N/A
Visualization observer readout
Local Sidereal Time
21:39:21
Azimuth
Unknown
Elevation
Unknown
Doppler factor
Unknown
Orbital elements
Apogee altitude
401.149 km
Perigee altitude
396.962 km
Semi-major axis
6,777.193 km
Eccentricity
0.00031
Inclination
53.0508°
RAAN
208.2383°
Arg. of periapsis
41.8795°
True anomaly
318.22152°
Mean anomaly
318.2451°
Eccentric anomaly
318.23331°
Mean motion
3.89017 °/min
Orbital period
92.54 mins
BSTAR
0.00034696
Loading maneuver chart data...
Computing Atmospheric mass density...

Documentation

Showing up to 5 results
|